sat.trackr.live / text

‹ back to catalog

CYGFM07

NORAD 41890 · 2016-078G

PAYLOAD INACTIVE UNKNOWN

§ Identity

Operator
Country
US
Launch date
2016-12-15
Launch site
ERAS
Launch vehicle
Mass (kg)
RCS (m²)
0.32

Purposes: earth_obs

External: N2YO · Heavens-Above · Gunter

§ Orbital elements

Epoch: 2026-09-20T05:07:07.012704Z

Period
92.00 min
Inclination
34.9441°
Eccentricity
0.0003720
Mean motion
15.65248830 rev/d
Perigee alt
370.0 km
Apogee alt
375.0 km
Semi-major
6,750.7 km
B*
2.5362e-4
RAAN
314.5767°
Arg perigee
35.6902°
Mean anomaly
324.4073°
Rev number
54,387

§ Raw data

CYGFM071 41890U 16078G   26263.21327561  .00026080  00000+0  25362-3 0  99962 41890  34.9441 314.5767 0003720  35.6902 324.4073 15.65248830543871

JSON: /api/v1/satellites/41890 · /tle

For live sub-satellite position, see the globe view (requires WebGL).

§ Visibility from observer

Set your observer location to see the next 7 days of passes ≥ 10°. The values pass through the URL so the page stays shareable.

No JS? Fill the form by hand. The geolocation button needs JavaScript.